Location: ???? ?????????
(44.3677°N, 135.2344°E)
Time: 08:08:43
(UTC+00:00)

Cosmos 2034 Rocket - Pass Details

Date: 19 May 2025
Orbit: 957 x 1000 km, 82.9° (Epoch: 23 June)

Event Time Altitude Azimuth Distance (km) Brightness Sun altitude
Rises 17:23:36 0° 354° (N) 3,650 7.8 -17.4°
Reaches altitude 10° 17:26:08 10° 357° (N) 2,698 7.0 -17.1°
Maximum altitude 17:32:16 67° 80° (E) 1,037 4.3 -16.4°
Drops below altitude 10° 17:38:22 10° 162° (SSE) 2,686 6.0 -15.7°
Enters shadow 17:40:18 - 165° (SSE) 3,411 6.5 -15.5°
